Skip Page Navigation
NASA JPL Caltech
NASA Logo - Jet Propulsion Laboratory + View the NASA Portal
+ Center for Near-Earth Object Studies
JPL Home Earth Solar System Stars & Galaxies Technology
JPL Solar System Dynamics
BODIES ORBITS EPHEMERIDES TOOLS PHYSICAL DATA DISCOVERY FAQ SITE MAP
JPL Small-Body Database Browser
Search: [ help ]  
344045 (2012 QT14)
Classification: Main-belt Asteroid          SPK-ID: 2344045
Ephemeris | Orbit Diagram | Orbital Elements | Mission Design | Physical Parameters | Discovery Circumstances | Close-Approach Data ]

[ show orbit diagram ]
Orbital Elements at Epoch 2459000.5 (2020-May-31.0) TDB
Reference: JPL 17 (heliocentric ecliptic J2000)
 Element Value Uncertainty (1-sigma)   Units 
e .3578054468993002 6.3335e-08  
a 2.611908891840641 3.4266e-08 au
q 1.677353663535345 1.7471e-07 au
i 6.275978922685023 7.1841e-06 deg
node 318.5267391035511 4.6955e-05 deg
peri 25.53997724883786 4.7326e-05 deg
M 305.3796798998064 1.3201e-05 deg
tp 2459234.430690585230
(2021-Jan-19.93069059)
6.0588e-05 TDB
period 1541.826346974933
4.22
3.0341e-05
8.307e-08
d
yr
n .2334893295255467 4.5947e-09 deg/d
Q 3.546464120145938 4.6526e-08 au
  Orbit Determination Parameters
   # obs. used (total)      354  
   data-arc span      5230 days (14.32 yr)  
   first obs. used      2004-12-11  
   last obs. used      2019-04-07  
   planetary ephem.      DE431  
   SB-pert. ephem.      SB431-N16  
   condition code      0  
   norm. resid. RMS      .53348  
   source      ORB  
   producer      Otto Matic  
   solution date      2019-Jul-14 14:44:45  

Additional Information
 Earth MOID = .672078 au 
 Jupiter MOID = 1.8919 au 
 T_jup = 3.307 
[ show covariance matrix ]

Ephemeris | Orbit Diagram | Orbital Elements | Mission Design | Physical Parameters | Discovery Circumstances | Close-Approach Data ]

Physical Parameter Table
Parameter Symbol Value Units Sigma Reference Notes
absolute magnitude H 15.5   n/a MPO437457  
diameter diameter 1.994 km 0.406 urn:nasa:pds:neowise_diameters_albedos::2.0[mainbelt] (http://adsabs.harvard.edu/abs/2017AJ....154..168M)  
geometric albedo albedo 0.256   0.144 urn:nasa:pds:neowise_diameters_albedos::2.0[mainbelt] (http://adsabs.harvard.edu/abs/2017AJ....154..168M)  

344045 (2012 QT14)          Discovered 2004-Dec-11 by LINEAR at Socorro
Reference: 20121029/Numbers.arcLast Updated: 2012-11-08

[ show close-approach data ]
Alternate Designations
 2012 QT14 = 1978 NG4 = 2004 XF108 = 2006 CS7 = 2011 GC24 
Ephemeris | Orbit Diagram | Orbital Elements | Mission Design | Physical Parameters | Discovery Circumstances | Close-Approach Data ]
ABOUT SSD CREDITS/AWARDS PRIVACY/COPYRIGHT GLOSSARY LINKS
FirstGov 2020-Sep-19 22:40 UT
(server date/time)  
NASA Home Page
Site Manager:   Ryan S. Park
Webmaster  Alan B. Chamberlin